Time,TemperatureF,DewpointF,PressureIn,WindDirection,WindDirectionDegrees,WindSpeedMPH,WindSpeedGustMPH,Humidity,HourlyPrecipIn,Conditions,Clouds,dailyrainin,SoftwareType,DateUTC
2013-07-13 00:00:00,67.5,57.4,30.17,ESE,113,2.0,2.0,70,0.00,,,0.00,WUHU216HW,2013-07-13 04:00:00,
2013-07-13 00:01:00,67.3,57.2,30.17,SE,135,2.7,2.7,70,0.00,,,0.00,WUHU216HW,2013-07-13 04:01:00,
2013-07-13 00:02:00,67.3,57.2,30.18,ESE,113,1.6,2.7,70,0.00,,,0.00,WUHU216HW,2013-07-13 04:02:00,
2013-07-13 00:07:00,67.0,57.2,30.18,East,90,0.9,2.7,71,0.00,,,0.00,WUHU216HW,2013-07-13 04:07:00,
2013-07-13 00:12:00,66.6,56.9,30.18,ENE,68,1.3,1.8,71,0.00,,,0.00,WUHU216HW,2013-07-13 04:12:00,
2013-07-13 00:17:00,66.4,57.1,30.18,ESE,113,0.7,1.8,72,0.00,,,0.00,WUHU216HW,2013-07-13 04:17:00,
2013-07-13 00:22:00,66.2,56.9,30.18,NNW,338,0.0,1.1,72,0.00,,,0.00,WUHU216HW,2013-07-13 04:22:00,
2013-07-13 00:27:00,66.1,57.2,30.18,ESE,113,0.0,0.7,73,0.00,,,0.00,WUHU216HW,2013-07-13 04:27:00,
2013-07-13 00:32:00,66.1,57.2,30.18,SE,135,0.4,1.1,73,0.00,,,0.00,WUHU216HW,2013-07-13 04:32:00,
2013-07-13 00:37:00,66.2,57.3,30.18,NW,315,0.0,1.1,73,0.00,,,0.00,WUHU216HW,2013-07-13 04:37:00,
2013-07-13 00:42:00,66.2,57.3,30.19,ENE,68,0.2,0.9,73,0.00,,,0.00,WUHU216HW,2013-07-13 04:42:00,
2013-07-13 00:47:00,66.1,57.2,30.19,North,0,0.0,0.4,73,0.00,,,0.00,WUHU216HW,2013-07-13 04:47:00,
2013-07-13 00:52:00,66.1,57.2,30.19,ESE,113,0.0,0.0,73,0.00,,,0.00,WUHU216HW,2013-07-13 04:52:00,
2013-07-13 00:57:00,66.1,57.5,30.19,ESE,113,0.0,0.0,74,0.00,,,0.00,WUHU216HW,2013-07-13 04:57:00,
2013-07-13 01:02:00,66.1,57.5,30.19,East,90,0.0,0.0,74,0.00,,,0.00,WUHU216HW,2013-07-13 05:02:00,
2013-07-13 01:07:00,65.9,57.3,30.20,ESE,113,1.1,1.1,74,0.00,,,0.00,WUHU216HW,2013-07-13 05:07:00,
2013-07-13 01:12:00,65.9,57.3,30.20,East,90,1.1,1.1,74,0.00,,,0.00,WUHU216HW,2013-07-13 05:12:00,
2013-07-13 01:17:00,65.7,57.2,30.20,ESE,113,1.1,1.1,74,0.00,,,0.00,WUHU216HW,2013-07-13 05:17:00,
2013-07-13 01:22:00,65.5,57.0,30.20,East,90,1.1,1.3,74,0.00,,,0.00,WUHU216HW,2013-07-13 05:22:00,
2013-07-13 01:27:00,65.5,57.0,30.20,ESE,113,1.1,1.3,74,0.00,,,0.00,WUHU216HW,2013-07-13 05:27:00,
2013-07-13 01:32:00,65.3,56.8,30.20,East,90,0.9,1.1,74,0.00,,,0.00,WUHU216HW,2013-07-13 05:32:00,
2013-07-13 01:37:00,65.2,57.1,30.20,East,90,0.0,1.1,75,0.00,,,0.00,WUHU216HW,2013-07-13 05:37:00,
2013-07-13 01:42:00,65.2,57.1,30.20,North,0,0.4,0.4,75,0.00,,,0.00,WUHU216HW,2013-07-13 05:42:00,
2013-07-13 01:47:00,65.2,57.1,30.20,North,0,0.0,0.4,75,0.00,,,0.00,WUHU216HW,2013-07-13 05:47:00,
2013-07-13 01:52:00,65.2,57.1,30.20,North,0,0.2,0.9,75,0.00,,,0.00,WUHU216HW,2013-07-13 05:52:00,
2013-07-13 01:57:00,65.2,57.4,30.21,NNW,338,0.4,1.1,76,0.00,,,0.00,WUHU216HW,2013-07-13 05:57:00,
2013-07-13 02:02:00,65.3,57.6,30.21,NNW,338,0.0,1.1,76,0.00,,,0.00,WUHU216HW,2013-07-13 06:02:00,
2013-07-13 02:07:00,65.3,57.6,30.21,NNW,338,0.4,0.9,76,0.00,,,0.00,WUHU216HW,2013-07-13 06:07:00,
2013-07-13 02:12:00,65.3,57.6,30.21,NNW,338,1.1,1.1,76,0.00,,,0.00,WUHU216HW,2013-07-13 06:12:00,
2013-07-13 02:17:00,65.5,57.8,30.21,NW,315,0.0,1.1,76,0.00,,,0.00,WUHU216HW,2013-07-13 06:17:00,
2013-07-13 02:22:00,65.5,57.8,30.21,West,270,0.4,0.9,76,0.00,,,0.00,WUHU216HW,2013-07-13 06:22:00,
2013-07-13 02:27:00,65.5,57.8,30.21,NW,315,0.4,0.9,76,0.00,,,0.00,WUHU216HW,2013-07-13 06:27:00,
2013-07-13 02:32:00,65.5,57.8,30.21,NNW,338,1.8,1.8,76,0.00,,,0.00,WUHU216HW,2013-07-13 06:32:00,
2013-07-13 02:37:00,65.5,58.2,30.21,WNW,293,0.0,1.8,77,0.00,,,0.00,WUHU216HW,2013-07-13 06:37:00,
2013-07-13 02:42:00,65.5,58.2,30.21,NW,315,0.0,0.9,77,0.00,,,0.00,WUHU216HW,2013-07-13 06:42:00,
2013-07-13 02:47:00,65.5,58.2,30.21,NW,315,0.4,0.7,77,0.00,,,0.00,WUHU216HW,2013-07-13 06:47:00,
2013-07-13 02:52:00,65.3,58.0,30.21,NNW,338,1.1,1.1,77,0.00,,,0.00,WUHU216HW,2013-07-13 06:52:00,
2013-07-13 02:57:00,65.3,58.0,30.21,NW,315,0.0,1.1,77,0.00,,,0.00,WUHU216HW,2013-07-13 06:57:00,
2013-07-13 03:02:00,65.3,58.0,30.21,NNW,338,0.9,0.9,77,0.00,,,0.00,WUHU216HW,2013-07-13 07:02:00,
2013-07-13 03:07:00,65.3,58.0,30.21,NNW,338,0.2,0.9,77,0.00,,,0.00,WUHU216HW,2013-07-13 07:07:00,
2013-07-13 03:12:00,65.2,57.8,30.21,NNW,338,0.4,0.9,77,0.00,,,0.00,WUHU216HW,2013-07-13 07:12:00,
2013-07-13 03:17:00,65.2,57.8,30.21,NNW,338,0.4,0.9,77,0.00,,,0.00,WUHU216HW,2013-07-13 07:17:00,
2013-07-13 03:22:00,65.2,57.8,30.21,NNW,338,0.0,0.7,77,0.00,,,0.00,WUHU216HW,2013-07-13 07:22:00,
2013-07-13 03:27:00,65.2,57.8,30.21,NNW,338,1.1,1.1,77,0.00,,,0.00,WUHU216HW,2013-07-13 07:27:00,
2013-07-13 03:32:00,65.2,58.2,30.21,NNW,338,1.3,1.8,78,0.00,,,0.00,WUHU216HW,2013-07-13 07:32:00,
2013-07-13 03:37:00,65.0,58.0,30.21,NW,315,0.4,1.8,78,0.00,,,0.00,WUHU216HW,2013-07-13 07:37:00,
2013-07-13 03:42:00,65.0,58.0,30.22,NW,315,0.2,0.9,78,0.00,,,0.00,WUHU216HW,2013-07-13 07:42:00,
2013-07-13 03:47:00,64.8,57.8,30.22,NW,315,0.0,0.7,78,0.00,,,0.00,WUHU216HW,2013-07-13 07:47:00,
2013-07-13 03:52:00,64.8,57.8,30.21,NNW,338,0.0,0.7,78,0.00,,,0.00,WUHU216HW,2013-07-13 07:52:00,
2013-07-13 03:57:00,64.8,57.8,30.22,NNW,338,0.0,0.4,78,0.00,,,0.00,WUHU216HW,2013-07-13 07:57:00,
2013-07-13 04:02:00,64.8,57.8,30.21,NNW,338,0.0,0.4,78,0.00,,,0.00,WUHU216HW,2013-07-13 08:02:00,
2013-07-13 04:07:00,64.6,57.6,30.21,ESE,113,0.9,0.9,78,0.00,,,0.00,WUHU216HW,2013-07-13 08:07:00,
2013-07-13 04:12:00,64.4,57.4,30.21,North,0,0.0,0.9,78,0.00,,,0.00,WUHU216HW,2013-07-13 08:12:00,
2013-07-13 04:17:00,64.4,57.4,30.21,North,0,0.0,0.0,78,0.00,,,0.00,WUHU216HW,2013-07-13 08:17:00,
2013-07-13 04:22:00,64.3,57.2,30.21,North,0,0.0,0.0,78,0.00,,,0.00,WUHU216HW,2013-07-13 08:22:00,
2013-07-13 04:27:00,64.3,57.6,30.21,ENE,68,0.0,0.0,79,0.00,,,0.00,WUHU216HW,2013-07-13 08:27:00,
2013-07-13 04:32:00,64.1,57.4,30.21,ENE,68,0.0,0.0,79,0.00,,,0.00,WUHU216HW,2013-07-13 08:32:00,
2013-07-13 04:37:00,63.9,57.2,30.21,ESE,113,0.0,0.0,79,0.00,,,0.00,WUHU216HW,2013-07-13 08:37:00,
2013-07-13 04:42:00,63.7,57.1,30.21,ESE,113,0.4,1.1,79,0.00,,,0.00,WUHU216HW,2013-07-13 08:42:00,
2013-07-13 04:47:00,63.7,57.4,30.21,ESE,113,1.8,1.8,80,0.00,,,0.00,WUHU216HW,2013-07-13 08:47:00,
2013-07-13 04:52:00,63.4,56.7,30.21,ESE,113,0.7,1.8,79,0.00,,,0.00,WUHU216HW,2013-07-13 08:52:00,
2013-07-13 04:57:00,63.4,56.7,30.21,East,90,0.9,1.6,79,0.00,,,0.00,WUHU216HW,2013-07-13 08:57:00,
2013-07-13 05:02:00,63.0,56.3,30.21,East,90,1.1,1.6,79,0.00,,,0.00,WUHU216HW,2013-07-13 09:02:00,
2013-07-13 05:07:00,62.8,56.2,30.21,ESE,113,1.3,1.8,79,0.00,,,0.00,WUHU216HW,2013-07-13 09:07:00,
2013-07-13 05:12:00,62.6,56.0,30.21,ESE,113,1.1,1.8,79,0.00,,,0.00,WUHU216HW,2013-07-13 09:12:00,
2013-07-13 05:13:00,62.6,56.0,30.21,ESE,113,1.1,1.8,79,0.00,,,0.00,WUHU216HW,2013-07-13 09:13:00,
2013-07-13 05:18:00,62.6,56.3,30.21,ESE,113,1.1,1.3,80,0.00,,,0.00,WUHU216HW,2013-07-13 09:18:00,
2013-07-13 05:23:00,62.5,56.2,30.21,ESE,113,0.7,1.6,80,0.00,,,0.00,WUHU216HW,2013-07-13 09:23:00,
2013-07-13 05:28:00,62.3,56.0,30.21,ESE,113,0.9,1.8,80,0.00,,,0.00,WUHU216HW,2013-07-13 09:28:00,
2013-07-13 05:33:00,62.3,56.0,30.21,ESE,113,0.7,1.8,80,0.00,,,0.00,WUHU216HW,2013-07-13 09:33:00,
2013-07-13 05:38:00,62.1,56.2,30.21,ENE,68,1.3,1.8,81,0.00,,,0.00,WUHU216HW,2013-07-13 09:38:00,
2013-07-13 05:43:00,62.1,56.2,30.22,East,90,1.1,1.3,81,0.00,,,0.00,WUHU216HW,2013-07-13 09:43:00,
2013-07-13 05:48:00,62.1,56.2,30.22,ESE,113,1.1,1.3,81,0.00,,,0.00,WUHU216HW,2013-07-13 09:48:00,
2013-07-13 05:53:00,62.1,56.2,30.22,ESE,113,0.7,1.1,81,0.00,,,0.00,WUHU216HW,2013-07-13 09:53:00,
2013-07-13 05:58:00,62.1,56.2,30.22,ESE,113,0.4,1.1,81,0.00,,,0.00,WUHU216HW,2013-07-13 09:58:00,
2013-07-13 06:03:00,62.3,56.7,30.23,ESE,113,0.9,1.1,82,0.00,,,0.00,WUHU216HW,2013-07-13 10:03:00,
2013-07-13 06:08:00,62.3,56.7,30.23,ESE,113,1.1,1.8,82,0.00,,,0.00,WUHU216HW,2013-07-13 10:08:00,
2013-07-13 06:13:00,62.5,56.9,30.23,ESE,113,1.1,1.8,82,0.00,,,0.00,WUHU216HW,2013-07-13 10:13:00,
2013-07-13 06:18:00,62.5,56.9,30.23,ESE,113,0.7,1.8,82,0.00,,,0.00,WUHU216HW,2013-07-13 10:18:00,
2013-07-13 06:23:00,62.8,57.3,30.23,ENE,68,0.4,1.6,82,0.00,,,0.00,WUHU216HW,2013-07-13 10:23:00,
2013-07-13 06:28:00,63.0,57.7,30.23,ESE,113,1.3,1.6,83,0.00,,,0.00,WUHU216HW,2013-07-13 10:28:00,
2013-07-13 06:33:00,63.2,57.9,30.23,ESE,113,0.4,1.8,83,0.00,,,0.00,WUHU216HW,2013-07-13 10:33:00,
2013-07-13 06:38:00,63.5,58.2,30.23,ESE,113,1.6,1.8,83,0.00,,,0.00,WUHU216HW,2013-07-13 10:38:00,
2013-07-13 06:43:00,63.7,58.4,30.24,ESE,113,1.3,1.8,83,0.00,,,0.00,WUHU216HW,2013-07-13 10:43:00,
2013-07-13 06:48:00,64.1,58.8,30.24,ESE,113,1.1,2.5,83,0.00,,,0.00,WUHU216HW,2013-07-13 10:48:00,
2013-07-13 06:53:00,64.4,59.1,30.24,SE,135,1.8,2.5,83,0.00,,,0.00,WUHU216HW,2013-07-13 10:53:00,
2013-07-13 06:58:00,64.6,59.3,30.24,East,90,0.2,2.2,83,0.00,,,0.00,WUHU216HW,2013-07-13 10:58:00,
2013-07-13 07:03:00,65.0,59.7,30.24,ESE,113,0.4,1.8,83,0.00,,,0.00,WUHU216HW,2013-07-13 11:03:00,
2013-07-13 07:08:00,65.2,59.9,30.24,SE,135,0.9,1.8,83,0.00,,,0.00,WUHU216HW,2013-07-13 11:08:00,
2013-07-13 07:13:00,65.5,60.2,30.24,ESE,113,1.6,1.6,83,0.00,,,0.00,WUHU216HW,2013-07-13 11:13:00,
2013-07-13 07:18:00,65.5,60.2,30.24,ESE,113,1.6,2.0,83,0.00,,,0.00,WUHU216HW,2013-07-13 11:18:00,
2013-07-13 07:23:00,65.9,60.6,30.24,SE,135,2.0,2.2,83,0.00,,,0.00,WUHU216HW,2013-07-13 11:23:00,
2013-07-13 07:28:00,66.1,60.4,30.24,ESE,113,0.7,2.5,82,0.00,,,0.00,WUHU216HW,2013-07-13 11:28:00,
2013-07-13 07:33:00,66.2,60.6,30.24,SSE,158,0.4,2.5,82,0.00,,,0.00,WUHU216HW,2013-07-13 11:33:00,
2013-07-13 07:38:00,66.6,60.9,30.24,East,90,1.1,1.1,82,0.00,,,0.00,WUHU216HW,2013-07-13 11:38:00,
2013-07-13 07:43:00,66.6,60.9,30.24,ESE,113,0.4,1.3,82,0.00,,,0.00,WUHU216HW,2013-07-13 11:43:00,
2013-07-13 07:48:00,66.8,61.1,30.24,ESE,113,0.7,2.0,82,0.00,,,0.00,WUHU216HW,2013-07-13 11:48:00,
2013-07-13 07:53:00,67.1,61.2,30.24,SE,135,0.4,2.0,81,0.00,,,0.00,WUHU216HW,2013-07-13 11:53:00,
2013-07-13 07:58:00,67.3,61.4,30.24,SE,135,0.9,1.3,81,0.00,,,0.00,WUHU216HW,2013-07-13 11:58:00,
2013-07-13 08:03:00,67.5,61.6,30.24,ESE,113,0.9,1.6,81,0.00,,,0.00,WUHU216HW,2013-07-13 12:03:00,
2013-07-13 08:08:00,67.7,61.4,30.24,SE,135,1.1,1.6,80,0.00,,,0.00,WUHU216HW,2013-07-13 12:08:00,
2013-07-13 08:13:00,67.7,61.4,30.25,ENE,68,0.4,1.1,80,0.00,,,0.00,WUHU216HW,2013-07-13 12:13:00,
2013-07-13 08:18:00,67.9,61.6,30.25,SW,225,0.0,1.1,80,0.00,,,0.00,WUHU216HW,2013-07-13 12:18:00,
2013-07-13 08:23:00,67.9,61.6,30.25,WSW,248,0.4,1.1,80,0.00,,,0.00,WUHU216HW,2013-07-13 12:23:00,
2013-07-13 08:28:00,68.0,61.4,30.25,WSW,248,0.4,0.7,79,0.00,,,0.00,WUHU216HW,2013-07-13 12:28:00,
2013-07-13 08:33:00,68.2,61.6,30.26,WSW,248,0.4,0.7,79,0.00,,,0.00,WUHU216HW,2013-07-13 12:33:00,
2013-07-13 08:38:00,68.2,61.6,30.26,WSW,248,0.4,0.9,79,0.00,,,0.00,WUHU216HW,2013-07-13 12:38:00,
2013-07-13 08:43:00,68.6,61.5,30.26,WSW,248,0.9,0.9,78,0.00,,,0.00,WUHU216HW,2013-07-13 12:43:00,
2013-07-13 08:48:00,68.8,61.7,30.26,WSW,248,0.9,1.1,78,0.00,,,0.00,WUHU216HW,2013-07-13 12:48:00,
2013-07-13 08:53:00,69.1,61.9,30.26,WSW,248,0.4,1.1,78,0.00,,,0.00,WUHU216HW,2013-07-13 12:53:00,
2013-07-13 08:58:00,69.3,62.1,30.26,WSW,248,0.7,0.9,78,0.00,,,0.00,WUHU216HW,2013-07-13 12:58:00,
2013-07-13 09:03:00,69.3,62.1,30.26,WSW,248,0.7,0.9,78,0.00,,,0.00,WUHU216HW,2013-07-13 13:03:00,
2013-07-13 09:08:00,69.5,61.9,30.26,NNW,338,0.7,1.1,77,0.00,,,0.00,WUHU216HW,2013-07-13 13:08:00,
2013-07-13 09:13:00,69.5,61.9,30.26,NNW,338,0.0,1.1,77,0.00,,,0.00,WUHU216HW,2013-07-13 13:13:00,
2013-07-13 09:18:00,69.8,62.2,30.26,NNW,338,0.2,0.4,77,0.00,,,0.00,WUHU216HW,2013-07-13 13:18:00,
2013-07-13 09:23:00,70.2,62.6,30.26,NW,315,0.0,0.4,77,0.00,,,0.00,WUHU216HW,2013-07-13 13:23:00,
2013-07-13 09:28:00,70.6,62.9,30.26,NW,315,0.7,0.7,77,0.00,,,0.00,WUHU216HW,2013-07-13 13:28:00,
2013-07-13 09:33:00,70.9,62.9,30.26,WNW,293,1.6,1.6,76,0.00,,,0.00,WUHU216HW,2013-07-13 13:33:00,
2013-07-13 09:38:00,70.9,62.9,30.26,WSW,248,1.6,1.6,76,0.00,,,0.00,WUHU216HW,2013-07-13 13:38:00,
2013-07-13 09:43:00,70.9,62.9,30.26,WSW,248,0.7,1.6,76,0.00,,,0.00,WUHU216HW,2013-07-13 13:43:00,
2013-07-13 09:48:00,70.7,62.7,30.26,WSW,248,0.4,1.1,76,0.00,,,0.00,WUHU216HW,2013-07-13 13:48:00,
2013-07-13 09:53:00,70.9,62.9,30.26,WSW,248,0.9,0.9,76,0.00,,,0.00,WUHU216HW,2013-07-13 13:53:00,
2013-07-13 09:58:00,70.9,62.9,30.26,WSW,248,0.4,0.9,76,0.00,,,0.00,WUHU216HW,2013-07-13 13:58:00,
2013-07-13 10:03:00,70.9,62.9,30.26,WSW,248,0.7,1.1,76,0.00,,,0.00,WUHU216HW,2013-07-13 14:03:00,
2013-07-13 10:08:00,70.9,62.6,30.26,WSW,248,1.1,1.1,75,0.00,,,0.00,WUHU216HW,2013-07-13 14:08:00,
2013-07-13 10:13:00,71.1,63.1,30.26,WSW,248,1.1,1.1,76,0.00,,,0.00,WUHU216HW,2013-07-13 14:13:00,
2013-07-13 10:18:00,71.1,63.1,30.26,WSW,248,0.9,1.1,76,0.00,,,0.00,WUHU216HW,2013-07-13 14:18:00,
2013-07-13 10:23:00,71.3,63.6,30.26,West,270,0.4,1.8,77,0.00,,,0.00,WUHU216HW,2013-07-13 14:23:00,
2013-07-13 10:28:00,71.6,63.6,30.26,WSW,248,1.1,1.8,76,0.00,,,0.00,WUHU216HW,2013-07-13 14:28:00,
2013-07-13 10:33:00,71.8,64.2,30.26,WSW,248,1.8,1.8,77,0.00,,,0.00,WUHU216HW,2013-07-13 14:33:00,
2013-07-13 10:38:00,71.6,63.6,30.26,WSW,248,1.1,1.8,76,0.00,,,0.00,WUHU216HW,2013-07-13 14:38:00,
2013-07-13 10:43:00,71.6,63.6,30.26,WSW,248,1.1,1.1,76,0.00,,,0.00,WUHU216HW,2013-07-13 14:43:00,
2013-07-13 11:00:00,74.0,65.2,30.26,SW,225,0.2,0.2,74,0.00,,,0.00,WUHU216HW,2013-07-13 15:00:00,
2013-07-13 11:05:00,74.3,65.2,30.26,WSW,248,1.3,1.3,73,0.00,,,0.00,WUHU216HW,2013-07-13 15:05:00,
2013-07-13 11:10:00,74.3,65.5,30.26,WSW,248,0.7,1.3,74,0.00,,,0.00,WUHU216HW,2013-07-13 15:10:00,
2013-07-13 11:15:00,74.3,65.2,30.26,SW,225,1.1,1.1,73,0.00,,,0.00,WUHU216HW,2013-07-13 15:15:00,
2013-07-13 11:20:00,74.5,65.4,30.26,WSW,248,1.1,1.3,73,0.00,,,0.00,WUHU216HW,2013-07-13 15:20:00,
2013-07-13 11:25:00,74.3,65.2,30.26,WSW,248,0.9,1.8,73,0.00,,,0.00,WUHU216HW,2013-07-13 15:25:00,
2013-07-13 11:30:00,74.3,65.5,30.26,SSE,158,2.2,2.2,74,0.00,,,0.00,WUHU216HW,2013-07-13 15:30:00,
2013-07-13 11:35:00,74.7,65.9,30.26,SSE,158,1.1,2.2,74,0.00,,,0.00,WUHU216HW,2013-07-13 15:35:00,
2013-07-13 11:40:00,75.6,66.3,30.26,SE,135,2.7,2.9,73,0.00,,,0.00,WUHU216HW,2013-07-13 15:40:00,
2013-07-13 11:45:00,76.5,66.9,30.26,SE,135,3.8,3.8,72,0.00,,,0.00,WUHU216HW,2013-07-13 15:45:00,
2013-07-13 11:50:00,77.2,67.1,30.26,SW,225,1.8,3.8,71,0.00,,,0.00,WUHU216HW,2013-07-13 15:50:00,
2013-07-13 11:55:00,77.8,66.8,30.26,SSE,158,1.1,4.0,69,0.00,,,0.00,WUHU216HW,2013-07-13 15:55:00,
2013-07-13 12:00:00,78.1,66.7,30.26,SE,135,2.5,4.0,68,0.00,,,0.00,WUHU216HW,2013-07-13 16:00:00,
2013-07-13 12:05:00,78.3,65.5,30.26,West,270,0.9,2.9,65,0.00,,,0.00,WUHU216HW,2013-07-13 16:05:00,
2013-07-13 12:10:00,78.3,65.5,30.26,SE,135,1.3,2.9,65,0.00,,,0.00,WUHU216HW,2013-07-13 16:10:00,
2013-07-13 12:15:00,78.5,65.7,30.27,SE,135,2.2,3.4,65,0.00,,,0.00,WUHU216HW,2013-07-13 16:15:00,
2013-07-13 12:20:00,78.3,65.5,30.26,SSE,158,6.0,6.0,65,0.00,,,0.00,WUHU216HW,2013-07-13 16:20:00,
2013-07-13 12:25:00,78.3,66.0,30.26,WNW,293,1.3,6.0,66,0.00,,,0.00,WUHU216HW,2013-07-13 16:25:00,
2013-07-13 12:30:00,78.1,65.0,30.26,SSW,203,3.6,5.4,64,0.00,,,0.00,WUHU216HW,2013-07-13 16:30:00,
2013-07-13 12:35:00,78.1,65.3,30.26,SE,135,3.6,5.4,65,0.00,,,0.00,WUHU216HW,2013-07-13 16:35:00,
2013-07-13 12:40:00,78.3,65.5,30.26,SE,135,3.6,3.6,65,0.00,,,0.00,WUHU216HW,2013-07-13 16:40:00,
2013-07-13 12:45:00,78.3,65.5,30.26,South,180,2.5,4.7,65,0.00,,,0.00,WUHU216HW,2013-07-13 16:45:00,
2013-07-13 12:50:00,78.3,65.5,30.26,SE,135,4.0,4.9,65,0.00,,,0.00,WUHU216HW,2013-07-13 16:50:00,
2013-07-13 12:55:00,77.9,64.8,30.26,SE,135,1.6,4.9,64,0.00,,,0.00,WUHU216HW,2013-07-13 16:55:00,
2013-07-13 13:00:00,77.6,64.9,30.26,SW,225,1.3,3.4,65,0.00,,,0.00,WUHU216HW,2013-07-13 17:00:00,
2013-07-13 13:05:00,77.4,64.7,30.26,SW,225,0.0,2.0,65,0.00,,,0.00,WUHU216HW,2013-07-13 17:05:00,
2013-07-13 13:10:00,77.2,64.5,30.26,ESE,113,0.7,3.4,65,0.00,,,0.00,WUHU216HW,2013-07-13 17:10:00,
2013-07-13 13:15:00,77.0,64.8,30.26,SSE,158,2.9,3.4,66,0.00,,,0.00,WUHU216HW,2013-07-13 17:15:00,
2013-07-13 13:20:00,76.9,64.6,30.26,SW,225,0.7,2.9,66,0.00,,,0.00,WUHU216HW,2013-07-13 17:20:00,
2013-07-13 13:25:00,76.5,64.3,30.26,SW,225,0.4,1.6,66,0.00,,,0.00,WUHU216HW,2013-07-13 17:25:00,
2013-07-13 13:30:00,76.3,64.1,30.26,SW,225,0.0,1.6,66,0.00,,,0.00,WUHU216HW,2013-07-13 17:30:00,
2013-07-13 13:35:00,76.3,64.1,30.26,SW,225,0.4,1.3,66,0.00,,,0.00,WUHU216HW,2013-07-13 17:35:00,
2013-07-13 13:40:00,76.1,63.9,30.26,WSW,248,0.4,1.3,66,0.00,,,0.00,WUHU216HW,2013-07-13 17:40:00,
2013-07-13 13:45:00,76.3,64.5,30.26,ESE,113,1.1,1.1,67,0.00,,,0.00,WUHU216HW,2013-07-13 17:45:00,
2013-07-13 13:50:00,76.3,64.5,30.26,WSW,248,0.0,1.3,67,0.00,,,0.00,WUHU216HW,2013-07-13 17:50:00,
2013-07-13 13:55:00,76.3,64.5,30.25,WSW,248,0.0,1.3,67,0.00,,,0.00,WUHU216HW,2013-07-13 17:55:00,
2013-07-13 14:00:00,76.1,63.9,30.26,SW,225,0.0,1.3,66,0.00,,,0.00,WUHU216HW,2013-07-13 18:00:00,
2013-07-13 14:05:00,76.1,64.4,30.26,SW,225,0.0,1.3,67,0.00,,,0.00,WUHU216HW,2013-07-13 18:05:00,
2013-07-13 14:10:00,76.0,63.7,30.25,WSW,248,0.4,1.1,66,0.00,,,0.00,WUHU216HW,2013-07-13 18:10:00,
2013-07-13 14:15:00,75.6,63.5,30.25,WSW,248,0.0,1.1,66,0.00,,,0.00,WUHU216HW,2013-07-13 18:15:00,
2013-07-13 14:20:00,75.6,63.8,30.26,WSW,248,0.4,0.7,67,0.00,,,0.00,WUHU216HW,2013-07-13 18:20:00,
2013-07-13 14:25:00,75.6,63.8,30.26,WSW,248,0.0,0.7,67,0.00,,,0.00,WUHU216HW,2013-07-13 18:25:00,
2013-07-13 14:30:00,75.6,63.8,30.25,WSW,248,0.4,0.7,67,0.00,,,0.00,WUHU216HW,2013-07-13 18:30:00,
2013-07-13 14:35:00,75.8,64.0,30.25,WSW,248,0.0,0.9,67,0.00,,,0.00,WUHU216HW,2013-07-13 18:35:00,
2013-07-13 14:40:00,76.0,64.2,30.25,WSW,248,0.7,0.9,67,0.00,,,0.00,WUHU216HW,2013-07-13 18:40:00,
2013-07-13 14:45:00,76.3,64.1,30.25,WSW,248,0.4,0.9,66,0.00,,,0.00,WUHU216HW,2013-07-13 18:45:00,
2013-07-13 14:50:00,76.7,64.4,30.25,WSW,248,0.4,0.9,66,0.00,,,0.00,WUHU216HW,2013-07-13 18:50:00,
2013-07-13 14:55:00,77.0,64.8,30.25,WNW,293,0.4,0.7,66,0.00,,,0.00,WUHU216HW,2013-07-13 18:55:00,
2013-07-13 15:00:00,77.0,64.4,30.24,WNW,293,0.9,1.1,65,0.00,,,0.00,WUHU216HW,2013-07-13 19:00:00,
2013-07-13 15:05:00,77.0,64.8,30.24,WNW,293,0.4,1.1,66,0.00,,,0.00,WUHU216HW,2013-07-13 19:05:00,
2013-07-13 15:10:00,77.0,64.8,30.24,WNW,293,0.4,0.4,66,0.00,,,0.00,WUHU216HW,2013-07-13 19:10:00,
2013-07-13 15:32:00,76.7,64.4,30.24,WSW,248,2.0,2.0,66,0.00,,,0.00,WUHU216HW,2013-07-13 19:32:00,
2013-07-13 15:37:00,76.9,64.6,30.24,East,90,1.6,2.0,66,0.00,,,0.00,WUHU216HW,2013-07-13 19:37:00,
2013-07-13 15:42:00,77.4,65.6,30.24,SE,135,3.4,3.4,67,0.00,,,0.00,WUHU216HW,2013-07-13 19:42:00,
2013-07-13 15:47:00,78.1,66.2,30.24,SSE,158,3.4,4.0,67,0.00,,,0.00,WUHU216HW,2013-07-13 19:47:00,
2013-07-13 15:52:00,78.8,66.5,30.24,ESE,113,2.0,4.0,66,0.00,,,0.00,WUHU216HW,2013-07-13 19:52:00,
2013-07-13 15:57:00,79.6,67.1,30.24,SE,135,1.8,2.7,66,0.00,,,0.00,WUHU216HW,2013-07-13 19:57:00,
2013-07-13 16:02:00,79.9,67.5,30.24,SSE,158,1.6,3.8,66,0.00,,,0.00,WUHU216HW,2013-07-13 20:02:00,
2013-07-13 16:07:00,80.3,67.9,30.24,SE,135,2.2,3.8,66,0.00,,,0.00,WUHU216HW,2013-07-13 20:07:00,
2013-07-13 16:12:00,80.8,68.0,30.23,ESE,113,2.5,2.5,65,0.00,,,0.00,WUHU216HW,2013-07-13 20:12:00,
2013-07-13 16:17:00,81.2,68.2,30.23,ESE,113,1.8,2.5,65,0.00,,,0.00,WUHU216HW,2013-07-13 20:17:00,
2013-07-13 16:22:00,81.7,68.3,30.23,ESE,113,3.8,4.7,64,0.00,,,0.00,WUHU216HW,2013-07-13 20:22:00,
2013-07-13 16:27:00,82.1,68.6,30.23,SSE,158,3.4,4.7,64,0.00,,,0.00,WUHU216HW,2013-07-13 20:27:00,
2013-07-13 16:32:00,82.4,68.9,30.23,SSE,158,2.9,4.5,64,0.00,,,0.00,WUHU216HW,2013-07-13 20:32:00,
2013-07-13 16:37:00,83.9,70.8,30.23,SSE,158,2.7,4.5,65,0.00,,,0.00,WUHU216HW,2013-07-13 20:37:00,
2013-07-13 16:42:00,85.3,71.3,30.23,SE,135,0.4,4.0,63,0.00,,,0.00,WUHU216HW,2013-07-13 20:42:00,
2013-07-13 16:47:00,86.0,70.6,30.22,SE,135,3.4,4.0,60,0.00,,,0.00,WUHU216HW,2013-07-13 20:47:00,
2013-07-13 16:52:00,85.3,69.4,30.22,SSE,158,4.0,4.3,59,0.00,,,0.00,WUHU216HW,2013-07-13 20:52:00,
2013-07-13 16:57:00,84.6,69.3,30.22,SE,135,4.3,4.3,60,0.00,,,0.00,WUHU216HW,2013-07-13 20:57:00,
2013-07-13 17:02:00,83.9,68.6,30.22,ESE,113,4.7,7.2,60,0.00,,,0.00,WUHU216HW,2013-07-13 21:02:00,
2013-07-13 17:07:00,83.5,68.7,30.22,ESE,113,3.8,7.2,61,0.00,,,0.00,WUHU216HW,2013-07-13 21:07:00,
2013-07-13 17:12:00,83.2,68.3,30.22,SSE,158,3.8,5.1,61,0.00,,,0.00,WUHU216HW,2013-07-13 21:12:00,
2013-07-13 17:17:00,83.2,68.3,30.22,ESE,113,2.9,6.3,61,0.00,,,0.00,WUHU216HW,2013-07-13 21:17:00,
2013-07-13 17:22:00,83.2,68.8,30.21,ESE,113,3.4,6.3,62,0.00,,,0.00,WUHU216HW,2013-07-13 21:22:00,
2013-07-13 17:27:00,83.3,68.9,30.22,SE,135,4.7,6.0,62,0.00,,,0.00,WUHU216HW,2013-07-13 21:27:00,
2013-07-13 17:32:00,83.3,68.5,30.22,ENE,68,3.4,6.3,61,0.00,,,0.00,WUHU216HW,2013-07-13 21:32:00,
2013-07-13 17:37:00,83.5,68.7,30.22,SE,135,4.3,6.3,61,0.00,,,0.00,WUHU216HW,2013-07-13 21:37:00,
2013-07-13 17:42:00,84.2,68.9,30.22,SE,135,6.5,6.5,60,0.00,,,0.00,WUHU216HW,2013-07-13 21:42:00,
2013-07-13 17:47:00,84.2,68.9,30.21,SE,135,4.7,6.5,60,0.00,,,0.00,WUHU216HW,2013-07-13 21:47:00,
2013-07-13 17:52:00,84.4,69.1,30.21,SE,135,5.4,8.5,60,0.00,,,0.00,WUHU216HW,2013-07-13 21:52:00,
2013-07-13 17:57:00,84.6,68.8,30.21,SE,135,3.4,8.5,59,0.00,,,0.00,WUHU216HW,2013-07-13 21:57:00,
2013-07-13 18:02:00,85.0,69.0,30.21,SE,135,4.0,6.5,59,0.00,,,0.00,WUHU216HW,2013-07-13 22:02:00,
2013-07-13 18:07:00,85.3,68.9,30.22,SE,135,3.4,5.4,58,0.00,,,0.00,WUHU216HW,2013-07-13 22:07:00,
2013-07-13 18:12:00,85.3,68.9,30.22,SE,135,3.8,4.0,58,0.00,,,0.00,WUHU216HW,2013-07-13 22:12:00,
2013-07-13 18:17:00,85.5,69.6,30.21,SSE,158,4.5,4.9,59,0.00,,,0.00,WUHU216HW,2013-07-13 22:17:00,
2013-07-13 18:22:00,86.0,69.5,30.22,SE,135,3.1,4.9,58,0.00,,,0.00,WUHU216HW,2013-07-13 22:22:00,
2013-07-13 18:27:00,86.6,70.0,30.22,ESE,113,3.4,4.9,58,0.00,,,0.00,WUHU216HW,2013-07-13 22:27:00,
2013-07-13 18:32:00,86.9,69.8,30.22,SSE,158,3.1,5.6,57,0.00,,,0.00,WUHU216HW,2013-07-13 22:32:00,
2013-07-13 18:37:00,87.3,70.2,30.22,SSE,158,4.9,5.6,57,0.00,,,0.00,WUHU216HW,2013-07-13 22:37:00,
2013-07-13 18:42:00,86.9,69.3,30.22,SE,135,1.8,4.9,56,0.00,,,0.00,WUHU216HW,2013-07-13 22:42:00,
2013-07-13 18:47:00,85.9,68.9,30.22,SE,135,5.1,5.1,57,0.00,,,0.00,WUHU216HW,2013-07-13 22:47:00,
2013-07-13 18:52:00,85.7,68.7,30.22,SE,135,3.4,5.1,57,0.00,,,0.00,WUHU216HW,2013-07-13 22:52:00,
2013-07-13 18:57:00,86.8,69.7,30.22,SSE,158,5.6,5.6,57,0.00,,,0.00,WUHU216HW,2013-07-13 22:57:00,
2013-07-13 19:02:00,88.2,70.6,30.22,ESE,113,4.0,5.6,56,0.00,,,0.00,WUHU216HW,2013-07-13 23:02:00,
2013-07-13 19:07:00,89.5,71.6,30.22,SE,135,2.9,5.1,56,0.00,,,0.00,WUHU216HW,2013-07-13 23:07:00,
2013-07-13 19:12:00,91.4,71.8,30.23,SE,135,3.4,4.9,53,0.00,,,0.00,WUHU216HW,2013-07-13 23:12:00,
2013-07-13 19:17:00,93.1,73.4,30.22,SE,135,3.1,4.5,53,0.00,,,0.00,WUHU216HW,2013-07-13 23:17:00,
2013-07-13 19:22:00,95.2,73.8,30.23,SE,135,2.5,3.6,50,0.00,,,0.00,WUHU216HW,2013-07-13 23:22:00,
2013-07-13 19:27:00,95.6,73.4,30.23,SE,135,1.8,2.5,49,0.00,,,0.00,WUHU216HW,2013-07-13 23:27:00,
2013-07-13 19:32:00,96.5,73.6,30.23,ESE,113,2.0,2.7,48,0.00,,,0.00,WUHU216HW,2013-07-13 23:32:00,
2013-07-13 19:37:00,98.5,74.7,30.23,ESE,113,2.5,2.9,47,0.00,,,0.00,WUHU216HW,2013-07-13 23:37:00,
2013-07-13 19:42:00,98.3,73.2,30.23,SE,135,1.8,3.4,45,0.00,,,0.00,WUHU216HW,2013-07-13 23:42:00,
2013-07-13 19:47:00,95.8,71.7,30.23,SSE,158,1.3,3.4,46,0.00,,,0.00,WUHU216HW,2013-07-13 23:47:00,
2013-07-13 19:52:00,92.5,69.8,30.22,SE,135,2.0,3.1,48,0.00,,,0.00,WUHU216HW,2013-07-13 23:52:00,
2013-07-13 19:57:00,90.2,69.0,30.23,SE,135,2.5,3.6,50,0.00,,,0.00,WUHU216HW,2013-07-13 23:57:00,
2013-07-13 20:02:00,88.9,69.0,30.23,SE,135,1.8,3.6,52,0.00,,,0.00,WUHU216HW,2013-07-14 00:02:00,
2013-07-13 20:07:00,88.6,69.2,30.23,SE,135,1.6,3.4,53,0.00,,,0.00,WUHU216HW,2013-07-14 00:07:00,
2013-07-13 20:12:00,89.3,69.8,30.23,SE,135,1.8,2.5,53,0.00,,,0.00,WUHU216HW,2013-07-14 00:12:00,
2013-07-13 20:17:00,88.9,69.6,30.23,SE,135,2.5,3.4,53,0.00,,,0.00,WUHU216HW,2013-07-14 00:17:00,
2013-07-13 20:22:00,87.1,68.0,30.22,ESE,113,2.5,3.4,53,0.00,,,0.00,WUHU216HW,2013-07-14 00:22:00,
2013-07-13 20:27:00,85.3,67.3,30.23,SSE,158,2.0,3.4,55,0.00,,,0.00,WUHU216HW,2013-07-14 00:27:00,
2013-07-13 20:32:00,83.9,67.1,30.22,SSE,158,2.9,3.1,57,0.00,,,0.00,WUHU216HW,2013-07-14 00:32:00,
2013-07-13 20:37:00,82.8,66.0,30.22,SE,135,2.2,2.9,57,0.00,,,0.00,WUHU216HW,2013-07-14 00:37:00,
2013-07-13 20:42:00,82.1,66.3,30.23,ESE,113,1.6,2.5,59,0.00,,,0.00,WUHU216HW,2013-07-14 00:42:00,
2013-07-13 20:47:00,81.4,66.2,30.23,ESE,113,1.8,2.2,60,0.00,,,0.00,WUHU216HW,2013-07-14 00:47:00,
2013-07-13 20:52:00,80.6,66.0,30.23,SE,135,1.8,2.2,61,0.00,,,0.00,WUHU216HW,2013-07-14 00:52:00,
2013-07-13 20:57:00,79.9,65.8,30.23,SE,135,2.2,2.9,62,0.00,,,0.00,WUHU216HW,2013-07-14 00:57:00,
2013-07-13 21:02:00,79.6,65.9,30.23,SE,135,3.1,3.6,63,0.00,,,0.00,WUHU216HW,2013-07-14 01:02:00,
2013-07-13 21:07:00,79.0,65.8,30.23,SE,135,3.4,3.6,64,0.00,,,0.00,WUHU216HW,2013-07-14 01:07:00,
2013-07-13 21:12:00,78.5,65.7,30.23,SE,135,2.9,3.4,65,0.00,,,0.00,WUHU216HW,2013-07-14 01:12:00,
2013-07-13 21:17:00,78.1,65.8,30.22,ESE,113,2.5,3.6,66,0.00,,,0.00,WUHU216HW,2013-07-14 01:17:00,
2013-07-13 21:22:00,77.8,65.5,30.23,SE,135,2.5,4.3,66,0.00,,,0.00,WUHU216HW,2013-07-14 01:22:00,
2013-07-13 21:27:00,77.4,65.6,30.23,SSE,158,2.5,4.3,67,0.00,,,0.00,WUHU216HW,2013-07-14 01:27:00,
2013-07-13 21:32:00,77.2,65.9,30.23,SE,135,2.0,4.0,68,0.00,,,0.00,WUHU216HW,2013-07-14 01:32:00,
2013-07-13 21:37:00,77.0,65.7,30.23,SE,135,1.8,2.9,68,0.00,,,0.00,WUHU216HW,2013-07-14 01:37:00,
2013-07-13 21:42:00,76.9,66.0,30.24,ESE,113,1.3,2.9,69,0.00,,,0.00,WUHU216HW,2013-07-14 01:42:00,
2013-07-13 21:47:00,76.9,66.0,30.24,SE,135,2.7,2.7,69,0.00,,,0.00,WUHU216HW,2013-07-14 01:47:00,
2013-07-13 21:52:00,76.7,65.8,30.24,SE,135,3.8,3.8,69,0.00,,,0.00,WUHU216HW,2013-07-14 01:52:00,
2013-07-13 21:57:00,76.5,66.1,30.24,SE,135,2.2,3.8,70,0.00,,,0.00,WUHU216HW,2013-07-14 01:57:00,
2013-07-13 22:02:00,76.5,66.1,30.24,SSE,158,1.3,3.8,70,0.00,,,0.00,WUHU216HW,2013-07-14 02:02:00,
2013-07-13 22:07:00,76.5,66.1,30.24,SSE,158,1.3,1.6,70,0.00,,,0.00,WUHU216HW,2013-07-14 02:07:00,
2013-07-13 22:29:00,75.8,66.2,30.24,SSE,158,3.4,3.4,72,0.00,,,0.00,WUHU216HW,2013-07-14 02:29:00,
2013-07-13 22:34:00,75.6,66.0,30.24,SE,135,3.6,3.8,72,0.00,,,0.00,WUHU216HW,2013-07-14 02:34:00,
2013-07-13 22:39:00,75.4,65.8,30.24,SE,135,3.1,3.8,72,0.00,,,0.00,WUHU216HW,2013-07-14 02:39:00,
2013-07-13 22:44:00,75.2,66.0,30.24,SE,135,3.4,3.4,73,0.00,,,0.00,WUHU216HW,2013-07-14 02:44:00,
2013-07-13 22:49:00,75.2,66.0,30.24,SE,135,1.6,3.4,73,0.00,,,0.00,WUHU216HW,2013-07-14 02:49:00,
2013-07-13 22:54:00,75.1,65.8,30.24,SE,135,2.0,3.4,73,0.00,,,0.00,WUHU216HW,2013-07-14 02:54:00,
2013-07-13 22:59:00,74.9,66.1,30.24,SSE,158,1.8,3.1,74,0.00,,,0.00,WUHU216HW,2013-07-14 02:59:00,
2013-07-13 23:04:00,74.9,66.1,30.25,ESE,113,1.8,3.1,74,0.00,,,0.00,WUHU216HW,2013-07-14 03:04:00,
2013-07-13 23:09:00,74.5,65.7,30.24,SE,135,2.9,2.9,74,0.00,,,0.00,WUHU216HW,2013-07-14 03:09:00,
2013-07-13 23:14:00,74.5,66.1,30.25,SE,135,3.4,3.4,75,0.00,,,0.00,WUHU216HW,2013-07-14 03:14:00,
2013-07-13 23:19:00,74.2,65.8,30.24,SE,135,1.8,3.4,75,0.00,,,0.00,WUHU216HW,2013-07-14 03:19:00,
2013-07-13 23:24:00,74.2,65.8,30.25,ESE,113,2.9,2.9,75,0.00,,,0.00,WUHU216HW,2013-07-14 03:24:00,
2013-07-13 23:29:00,74.0,65.6,30.25,ESE,113,2.5,3.4,75,0.00,,,0.00,WUHU216HW,2013-07-14 03:29:00,
2013-07-13 23:34:00,73.8,65.4,30.25,ESE,113,2.7,3.4,75,0.00,,,0.00,WUHU216HW,2013-07-14 03:34:00,
2013-07-13 23:39:00,73.8,65.8,30.25,ESE,113,2.2,3.4,76,0.00,,,0.00,WUHU216HW,2013-07-14 03:39:00,
2013-07-13 23:44:00,73.8,65.8,30.25,SE,135,3.4,3.4,76,0.00,,,0.00,WUHU216HW,2013-07-14 03:44:00,
2013-07-13 23:49:00,73.6,65.6,30.25,SE,135,3.4,4.0,76,0.00,,,0.00,WUHU216HW,2013-07-14 03:49:00,
2013-07-13 23:54:00,73.6,65.6,30.25,SE,135,2.5,4.0,76,0.00,,,0.00,WUHU216HW,2013-07-14 03:54:00,
2013-07-13 23:59:00,73.4,65.8,30.25,SSE,158,3.4,3.4,77,0.00,,,0.00,WUHU216HW,2013-07-14 03:59:00,